KLM1959 EHAM-LTFM

Flight info

Callsign KLM1959
Flight time N/A
Altitude 39000
Route EDUPO Z739 MISGO DCT GMH DCT EKSAK DCT SWALM DCT GASKA DCT ENITA/N0483F410 DCT ETVIS DCT BUDEX DCT TEKNO DCT OGVUN DCT DUZLA DCT MAVIR DCT TIMUR L606 GASRU DCT RILEX
Aircraft MD11/H-SDE1E2E3FGHIJ2J3J4J5M1RWXY/LB1D1

Departure

Time 2026-04-30 13:42
Airport Amsterdam Airport Schiphol (EHAM)

Arrival

Time N/A
Airport İstanbul Airport (LTFM)
Time Latitude Longitude Altitude Speed Heading
2026-04-30 13:01 52.31006 4.77239 6 ft 0 kts 182°
2026-04-30 13:29 52.31046 4.77236 6 ft 4 kts 176°
2026-04-30 13:30 52.31076 4.77295 6 ft 2 kts 258°
2026-04-30 13:34 52.31075 4.77290 6 ft 2 kts 258°
2026-04-30 13:34 52.31093 4.76975 7 ft 9 kts 306°
2026-04-30 13:35 52.31136 4.76942 6 ft 6 kts
2026-04-30 13:35 52.31265 4.77063 6 ft 17 kts 33°
2026-04-30 13:36 52.31477 4.77199 6 ft 15 kts
2026-04-30 13:36 52.31554 4.77180 8 ft 5 kts 323°
2026-04-30 13:36 52.31565 4.76977 6 ft 16 kts 267°
2026-04-30 13:37 52.31558 4.76780 6 ft 17 kts 266°
2026-04-30 13:37 52.31543 4.76377 7 ft 18 kts 266°
2026-04-30 13:38 52.31530 4.75993 7 ft 16 kts 267°
2026-04-30 13:38 52.31523 4.75799 6 ft 20 kts 266°
2026-04-30 13:38 52.31508 4.75348 6 ft 19 kts 266°
2026-04-30 13:39 52.31494 4.74951 6 ft 16 kts 266°
2026-04-30 13:39 52.31497 4.74699 8 ft 2 kts 304°
2026-04-30 13:40 52.31520 4.74674 7 ft 7 kts 335°
2026-04-30 13:40 52.31578 4.74659 7 ft 9 kts 358°
2026-04-30 13:40 52.31633 4.74670 7 ft 6 kts
2026-04-30 13:40 52.31652 4.74685 9 ft 4 kts 36°
2026-04-30 13:41 52.31664 4.74734 7 ft 4 kts 84°
2026-04-30 13:41 52.31667 4.74799 6 ft 14 kts 84°
2026-04-30 13:41 52.31691 4.75459 4 ft 108 kts 87°
2026-04-30 13:41 52.31772 4.77100 259 ft 162 kts 87°
2026-04-30 13:42 52.31855 4.78869 1512 ft 156 kts 89°
2026-04-30 13:42 52.31920 4.80680 2759 ft 164 kts 90°
2026-04-30 13:42 52.32055 4.84834 4394 ft 205 kts 93°
2026-04-30 13:43 52.31915 4.87220 4926 ft 224 kts 108°
2026-04-30 13:43 52.31382 4.89752 5637 ft 238 kts 115°
2026-04-30 13:43 52.30711 4.92251 6856 ft 243 kts 115°
2026-04-30 13:43 52.30027 4.94765 7979 ft 248 kts 114°
2026-04-30 13:44 52.29422 4.97425 9133 ft 253 kts 109°
2026-04-30 13:44 52.28902 5.00199 10262 ft 258 kts 107°
2026-04-30 13:44 52.28378 5.03136 10749 ft 287 kts 107°
2026-04-30 13:44 52.27790 5.06478 10911 ft 325 kts 106°
2026-04-30 13:45 52.26515 5.13803 12339 ft 344 kts 106°
2026-04-30 13:45 52.25868 5.17529 13513 ft 343 kts 105°
2026-04-30 13:45 52.25211 5.21308 14481 ft 349 kts 105°
2026-04-30 13:46 52.24439 5.25083 15271 ft 354 kts 114°
2026-04-30 13:46 52.23228 5.28615 16109 ft 360 kts 121°
2026-04-30 13:46 52.21811 5.32021 16933 ft 365 kts 124°
2026-04-30 13:46 52.20319 5.35404 17742 ft 370 kts 124°
2026-04-30 13:47 52.18797 5.38822 18543 ft 375 kts 124°
2026-04-30 13:47 52.17258 5.42292 19223 ft 380 kts 124°
2026-04-30 13:47 52.15710 5.45807 19851 ft 385 kts 124°
2026-04-30 13:47 52.14138 5.49396 20440 ft 391 kts 124°
2026-04-30 13:48 52.13092 5.51790 20872 ft 394 kts 124°
2026-04-30 13:48 52.11496 5.55443 21512 ft 398 kts 124°
2026-04-30 13:48 52.09876 5.59142 22164 ft 403 kts 124°
2026-04-30 13:48 52.08244 5.62862 22849 ft 407 kts 124°
2026-04-30 13:49 52.06563 5.66619 23483 ft 413 kts 126°
2026-04-30 13:49 52.04754 5.70265 24161 ft 417 kts 128°
2026-04-30 13:49 52.02857 5.73869 24742 ft 421 kts 129°
2026-04-30 13:49 52.00921 5.77463 25420 ft 424 kts 129°
2026-04-30 13:50 51.98964 5.81079 26026 ft 429 kts 129°
2026-04-30 13:50 51.94998 5.88427 27279 ft 438 kts 129°
2026-04-30 13:50 51.92985 5.92171 27810 ft 443 kts 129°
2026-04-30 13:51 51.90957 5.95945 28457 ft 446 kts 129°
2026-04-30 13:51 51.88912 5.99754 29067 ft 450 kts 129°
2026-04-30 13:51 51.86852 6.03588 29690 ft 453 kts 129°
2026-04-30 13:51 51.84768 6.07445 30267 ft 457 kts 129°
2026-04-30 13:52 51.82658 6.11327 30715 ft 462 kts 129°
2026-04-30 13:52 51.80530 6.15231 31180 ft 464 kts 129°
2026-04-30 13:52 51.78390 6.19152 31650 ft 466 kts 130°
2026-04-30 13:52 51.76245 6.23075 32186 ft 465 kts 129°
2026-04-30 13:53 51.74105 6.26976 32810 ft 462 kts 129°
2026-04-30 13:53 51.71975 6.30856 33359 ft 462 kts 129°
2026-04-30 13:53 51.69850 6.34724 33888 ft 461 kts 129°
2026-04-30 13:53 51.67729 6.38581 34411 ft 459 kts 129°
2026-04-30 13:54 51.65607 6.42437 34848 ft 458 kts 129°
2026-04-30 13:54 51.63495 6.46267 35252 ft 458 kts 129°
2026-04-30 13:54 51.61408 6.50047 35660 ft 457 kts 129°
2026-04-30 13:54 51.59298 6.53869 36060 ft 456 kts 129°
2026-04-30 13:55 51.57194 6.57677 36437 ft 456 kts 129°
2026-04-30 13:55 51.55084 6.61494 36800 ft 456 kts 129°
2026-04-30 13:55 51.52981 6.65292 37164 ft 456 kts 129°
2026-04-30 13:55 51.50874 6.69094 37497 ft 455 kts 129°
2026-04-30 13:56 51.48768 6.72890 37837 ft 455 kts 129°
2026-04-30 13:56 51.46658 6.76683 38145 ft 456 kts 129°
2026-04-30 13:56 51.44543 6.80484 38453 ft 456 kts 129°
2026-04-30 13:56 51.42430 6.84278 38767 ft 456 kts 128°
2026-04-30 13:57 51.40479 6.88251 39043 ft 452 kts 120°
2026-04-30 13:57 51.38982 6.92643 39269 ft 449 kts 111°
2026-04-30 13:57 51.36865 7.02073 39354 ft 452 kts 105°
2026-04-30 13:58 51.33895 7.16404 39357 ft 452 kts 107°
2026-04-30 13:59 51.31778 7.25882 39357 ft 454 kts 107°
2026-04-30 13:59 51.29612 7.35364 39360 ft 454 kts 107°
2026-04-30 14:00 51.27448 7.44781 39360 ft 455 kts 107°
2026-04-30 14:00 51.24170 7.58986 39363 ft 455 kts 108°
2026-04-30 14:01 51.21976 7.68446 39368 ft 455 kts 107°
2026-04-30 14:01 51.19771 7.77914 39365 ft 455 kts 107°
2026-04-30 14:02 51.17561 7.87366 39371 ft 455 kts 107°
2026-04-30 14:02 51.15429 7.96861 39368 ft 454 kts 106°
2026-04-30 14:03 51.13374 8.06376 39373 ft 454 kts 106°
2026-04-30 14:03 51.11328 8.15899 39377 ft 456 kts 105°
2026-04-30 14:04 51.09265 8.25452 39380 ft 456 kts 105°
2026-04-30 14:04 51.07191 8.34994 39367 ft 456 kts 106°
2026-04-30 14:05 51.05109 8.44521 39382 ft 457 kts 106°
2026-04-30 14:05 51.03017 8.54050 39407 ft 456 kts 105°
2026-04-30 14:06 50.98303 8.67277 39387 ft 466 kts 124°
2026-04-30 14:07 50.92169 8.79296 39389 ft 467 kts 124°
2026-04-30 14:08 50.86163 8.91432 39387 ft 467 kts 124°
2026-04-30 14:08 50.80231 9.03558 39388 ft 467 kts 124°
2026-04-30 14:09 50.76251 9.11660 39387 ft 467 kts 124°
2026-04-30 14:10 50.70474 9.23970 39384 ft 463 kts 117°
2026-04-30 14:10 50.67404 9.32863 39381 ft 461 kts 113°
2026-04-30 14:11 50.64497 9.41877 39387 ft 462 kts 113°
2026-04-30 14:11 50.61536 9.50891 39379 ft 463 kts 113°
2026-04-30 14:12 50.58537 9.59864 39391 ft 464 kts 114°
2026-04-30 14:12 50.55518 9.68829 39385 ft 464 kts 114°
2026-04-30 14:13 50.52620 9.77855 39393 ft 461 kts 110°
2026-04-30 14:13 50.50034 9.87092 39397 ft 462 kts 109°
2026-04-30 14:14 50.47434 9.96339 39394 ft 463 kts 109°
2026-04-30 14:14 50.44778 10.05544 39398 ft 463 kts 110°
2026-04-30 14:15 50.42098 10.14721 39393 ft 463 kts 110°
2026-04-30 14:15 50.39408 10.23889 39403 ft 463 kts 110°
2026-04-30 14:16 50.36707 10.33069 39401 ft 465 kts 110°
2026-04-30 14:16 50.33993 10.42259 39398 ft 465 kts 110°
2026-04-30 14:17 50.31274 10.51427 39398 ft 465 kts 110°
2026-04-30 14:17 50.28565 10.60532 39400 ft 465 kts 110°
2026-04-30 14:18 50.25826 10.69699 39405 ft 466 kts 110°
2026-04-30 14:18 50.21693 10.83471 39401 ft 467 kts 110°